Regional Weather Roundup
Issued by NWS

Home | Current Version | Previous Version | Text Only | Print | Product List | Glossary Off
Versions: 1 2 3 4 5 6 7 8 9 10 11 12 13 14 15 16 17 18 19 20 21 22 23 24 25 26 27 28 29 30 31 32 33 34 35 36 37 38 39 40 41 42 43 44 45 46 47 48 49 50

000
ASUS43 KMKX 311800
RWRWI

WISCONSIN REGIONAL WEATHER ROUNDUP
NATIONAL WEATHER SERVICE MILWAUKEE/SULLIVAN WI
100 PM CDT WED AUG 31 2016

NOTE: "FAIR" INDICATES FEW OR NO CLOUDS BELOW 12,000 FEET WITH NO
SIGNIFICANT WEATHER AND/OR OBSTRUCTIONS TO VISIBILITY.

WIZ001-002-006>008-014>016-023>028-311900-
NORTHWEST WISCONSIN

CITY           SKY/WX    TMP DP  RH WIND       PRES   REMARKS
SUPERIOR ARPT  MOSUNNY   73  50  44 CALM      30.19F
ASHLAND        PTSUNNY   72  56  57 NE8       30.19F
6HR MIN TEMP:  48; 6HR MAX TEMP:  74;

HAYWARD        MOSUNNY   71  50  47 N5        30.20F
6HR MIN TEMP:  46; 6HR MAX TEMP:  72;

SIREN          SUNNY     72  50  45 NW7       30.21F
CUMBERLAND     SUNNY     70  50  49 NW8       30.21S
RICE LAKE      SUNNY     72  50  45 CALM      30.21F
CHETEK         NOT AVBL
LADYSMITH      MOSUNNY   73  52  47 N6        30.21S
EAU CLAIRE     NOT AVBL
MENOMONIE      SUNNY     74  52  46 NW6       30.19S
6HR MIN TEMP:  53; 6HR MAX TEMP:  75;

NEW RICHMOND   SUNNY     73  51  45 NW7       30.21S
OSCEOLA        SUNNY     73  52  48 N6        30.23F
$$

WIZ003>005-009-010-017-018-311900-
NORTH CENTRAL WISCONSIN

CITY           SKY/WX    TMP DP  RH WIND       PRES   REMARKS
MANITOWISH WTR NOT AVBL
ARBOR VITAE    MOSUNNY   72  56  57 N9        30.19S
WOODRUFF       MOSUNNY   72  56  57 N9        30.19S
RHINELANDER    PTSUNNY   69  53  56 N7        30.18F
6HR MIN TEMP:  52; 6HR MAX TEMP:  71;

EAGLE RIVER    MOSUNNY   70  49  48 N12G20    30.17F
LAND O LAKES   CLOUDY    69  53  56 N10       30.19F
PHILLIPS       PTSUNNY   68  53  58 N7        30.19S
TOMAHAWK       MOSUNNY   69  52  55 N8        30.18F
MEDFORD        MOSUNNY   71  53  53 N12       30.18F
MERRILL        PTSUNNY   71  53  54 N9        30.17F
$$

WIZ029-030-035-036-043>047-311900-
CENTRAL WISCONSIN

CITY           SKY/WX    TMP DP  RH WIND       PRES   REMARKS
WAUSAU         MOSUNNY   73  52  47 N9        30.15F
6HR MIN TEMP:  53; 6HR MAX TEMP:  74;

MOSINEE        MOSUNNY   72  54  53 NW14G20   30.17F
MARSHFIELD     MOSUNNY   76  52  43 N8        30.16F
6HR MIN TEMP:  53; 6HR MAX TEMP:  76;

STEVENS POINT  SUNNY     72  51  47 NW7       30.16S
WAUPACA        SUNNY     78  50  37 NW8       30.14S
WAUTOMA        SUNNY     75  52  44 N6        30.14S
6HR MIN TEMP:  51; 6HR MAX TEMP:  75;

WISC RAPIDS    SUNNY     77  52  41 N10       30.16F
6HR MIN TEMP:  54; 6HR MAX TEMP:  77;

CAMP DOUGLAS   NOT AVBL
$$

WIZ011>013-019>022-031-037>040-048>050-311900-
NORTHEAST WISCONSIN

CITY           SKY/WX    TMP DP  RH WIND       PRES   REMARKS
ANTIGO         PTSUNNY   67  53  59 N9        30.17F
SHAWANO        PTSUNNY   76  56  49 N10       30.13F
OCONTO         NOT AVBL
STURGEON BAY   NOT AVBL
GREEN BAY      MOSUNNY   75  58  55 NW9       30.12
6HR MIN TEMP:  55; 6HR MAX TEMP:  75;

MANITOWOC      NOT AVBL
APPLETON       PTSUNNY   73  48  40 N10G18    30.12F
CLINTONVILLE   MOSUNNY   73  50  43 NW9       30.12F
OSHKOSH        MOSUNNY   75  54  47 NW12      30.13S
6HR MIN TEMP:  60; 6HR MAX TEMP:  75;

$$

WIZ032>034-041-042-053>061-311900-
SOUTHWEST WISCONSIN

CITY           SKY/WX    TMP DP  RH WIND       PRES   REMARKS
LA CROSSE      SUNNY     77  54  44 N8        30.16S
6HR MIN TEMP:  59; 6HR MAX TEMP:  77;

SPARTA         SUNNY     73  55  52 NW9       30.16F
VIROQUA        SUNNY     73  55  53 N6        30.17F
6HR MIN TEMP:  55; 6HR MAX TEMP:  73;

BOSCOBEL       SUNNY     79  53  40 N8        30.14F
6HR MIN TEMP:  56; 6HR MAX TEMP:  79;

PRAIRIE DU CHI SUNNY     74  49  41 N10       30.15S
PLATTEVILLE    SUNNY     73  60  64 N10       30.15S
$$

WIZ056-057-062-063-064-067-068-311900-
SOUTH CENTRAL WISCONSIN

CITY           SKY/WX    TMP DP  RH WIND       PRES   REMARKS
REEDSBURG      NOT AVBL
BARABOO/DELLS  SUNNY     73  50  43 CALM      30.15S
LONE ROCK      NOT AVBL
MINERAL POINT  SUNNY     73  52  46 N10       30.15F
MADISON        MOSUNNY   75  55  49 N14G21    30.12F
6HR MIN TEMP:  62; 6HR MAX TEMP:  75;

MIDDLETON      SUNNY     74  55  50 NE10      30.14S
WATERTOWN      SUNNY     73  55  53 N12       30.12F
MONROE         SUNNY     72  57  60 N9        30.13F
JANESVILLE     MOSUNNY   75  55  50 VRB9      30.11F
$$

WIZ051-052-058>065-066-070>072-311900-
SOUTHEAST WISCONSIN

CITY           SKY/WX    TMP DP  RH WIND       PRES   REMARKS
MILWAUKEE      MOSUNNY   74  57  55 NE10      30.11S
6HR MIN TEMP:  66; 6HR MAX TEMP:  74;

WAUKESHA       MOSUNNY   73  54  49 N9        30.12F
MILWAUKEE/TIMM MOSUNNY   73  54  49 NE12      30.11F
RACINE         SUNNY     73  60  63 N14       30.12S
6HR MIN TEMP:  64; 6HR MAX TEMP:  73;

BURLINGTON     MOSUNNY   73  56  54 N5        30.11S
KENOSHA        MOSUNNY   74  59  59 N10       30.11S
6HR MIN TEMP:  63; 6HR MAX TEMP:  74;

FOND DU LAC    MOSUNNY   74  55  51 NE9       30.13S
6HR MIN TEMP:  60; 6HR MAX TEMP:  75;

SHEBOYGAN      MOSUNNY   75  54  47 NE10      30.11F
6HR MIN TEMP:  59; 6HR MAX TEMP:  76;

WEST BEND      SUNNY     73  52  46 N12       30.11F
JUNEAU         SUNNY     72  53  51 N8        30.13F
$$

LSZ147-162-311900-
LAKE SUPERIOR

STATION/POSITION TIME  TEMP    WIND        PRES    WAVE
                       AIR SEA DIR/SP/G            HT/PER
                 (UTC) (F)     (DEG/KT/KT) (MB)    (FT/S)
W MID LAKE BUOY  1650   65 67  350/  6/  6 1021.8R   1/ 3
DEVILS ISLAND    1700   66     290/  3/  5 1022.7S
PORT WING        1740   67     310/  3/  4 1022.7F
SAXON HARBOR     1740   69     360/  4/  5 1022.4S
$$

LMZ867-665-643>646-311900-
LAKE MICHIGAN

STATION/POSITION TIME  TEMP    WIND        PRES    WAVE
                       AIR SEA DIR/SP/G            HT/PER
                 (UTC) (F)     (DEG/KT/KT) (MB)    (FT/S)
CHAMBERS ISLAND  1600   71      10/  2/  3 1020.3R
S GREEN BAY BUOY 1600   66 72  340/  6/  8 1020.0
N MID LAKE BUOY  1650   68 71  320/ 10/ 12 1018.8F   1/ 3
NORTHPORT PIER   1700   69     320/  7/  9 1019.6F
SISTER BAY       1737   75     330/  6/  7   N/A
ALGOMA LAKESHORE 1615          320/  8/  9   N/A
KEWAUNEE LAKESHO 1700   71      30/  5/ 10 1019.3F
SHEBOYGAN LAKESH 1700   66      30/ 10/ 10 1019.4S
PORT WASHINGTON  1740   68      60/  4/  6 1020.3S
ATWATER BUOY     1700   66      20/ 12/ 14   N/A
MILWAUKEE LAKESH 1710   67      30/ 12/ 14   N/A
S MID LAKE BUOY  1650   70 75   20/ 17/ 23 1017.6R   4/ 6
KENOSHA   LAKESH 1700   67      20/ 14/ 16 1019.0R
$$

TC  - TEMPERATURE IN CELSIUS
VSB - VISIBILITY IN STATUTE MILES
WCI - WIND CHILL INDEX
HX  - HEAT INDEX




USA.gov is the U.S. government's official web portal to all federal, state and local government web resources and services.